My Profile
  1. Member Settings
  2. My Devices
  3. Sign Out
        More Settings
      Elev 2094 ft, 32.628 °N 105.675 °W

      Timberon, NM

      Summary

      Temperature (°F)MaxAverageMin
      Max Temperature817054
      Avg Temperature63.3553.0838.31
      Min Temperature5036.7923
      Precipitation (in)MaxAverageMinSum
      Precipitation0000
      Dew Point (°F)MaxAverageMin
      Dew Point28.7614.792.87
      Wind (mph)MaxAverageMin
      Wind2916.4810
      Gust Wind3919.7412
      Sea Level Pressure (in)MaxAverageMin
      Sea Level Pressure25.9125.7825.49

      Daily Observations

      DateTemp High/LowDew Pt High/LowHumidityWindMax WindWind GustPressurePrecip.Condition
      2/1/2025 63 °F / 23 °F 16 °F / 3 °F 28 % 13 mph - 25.87 in 0 in
      2/2/2025 70 °F / 32 °F 23 °F / 7 °F 25 % 10 mph - 25.83 in 0 in
      2/3/2025 73 °F / 34 °F 27 °F / 18 °F 35 % 8 mph - 25.82 in 0 in
      2/4/2025 79 °F / 37 °F 28 °F / 14 °F 27 % 12 mph - 25.79 in 0 in
      2/5/2025 79 °F / 43 °F 18 °F / 3 °F 15 % 13 mph - 25.76 in 0 in
      2/6/2025 77 °F / 37 °F 18 °F / 3 °F 16 % 18 mph - 25.79 in 0 in
      2/7/2025 79 °F / 43 °F 19 °F / -4 °F 14 % 16 mph - 25.8 in 0 in
      2/8/2025 81 °F / 45 °F 12 °F / -4 °F 11 % 18 mph - 25.76 in 0 in
      2/9/2025 79 °F / 41 °F 16 °F / 5 °F 15 % 16 mph - 25.78 in 0 in
      2/10/2025 68 °F / 45 °F 32 °F / 10 °F 25 % 15 mph - 25.73 in 0 in
      2/11/2025 68 °F / 45 °F 32 °F / 9 °F 28 % 29 mph - 25.54 in 0 in
      2/12/2025 57 °F / 41 °F 21 °F / 9 °F 28 % 23 mph - 25.56 in 0 in
      2/13/2025 61 °F / 30 °F 32 °F / 16 °F 40 % 16 mph - 25.84 in 0 in
      2/14/2025 70 °F / 48 °F 28 °F / 23 °F 29 % 23 mph - 25.72 in 0 in
      2/15/2025 59 °F / 39 °F 37 °F / 18 °F 44 % 25 mph - 25.75 in 0 in
      2/16/2025 61 °F / 32 °F 21 °F / 0 °F 28 % 17 mph - 25.85 in 0 in
      2/17/2025 72 °F / 32 °F 19 °F / 7 °F 21 % 15 mph - 25.69 in 0 in
      2/18/2025 68 °F / 37 °F 18 °F / 12 °F 20 % 20 mph - 25.68 in 0 in
      2/19/2025 59 °F / 27 °F 19 °F / 7 °F 32 % 16 mph - 25.86 in 0 in
      2/20/2025 52 °F / 25 °F 14 °F / 7 °F 32 % 18 mph - 25.8 in 0 in
      2/21/2025 54 °F / 25 °F 12 °F / 5 °F 30 % 10 mph - 25.87 in 0 in
      2/22/2025 59 °F / 30 °F 14 °F / 7 °F 28 % 12 mph - 25.92 in 0 in
      2/23/2025 70 °F / 28 °F 14 °F / 5 °F 20 % 20 mph - 25.89 in 0 in
      2/24/2025 79 °F / 32 °F 18 °F / 3 °F 18 % 13 mph - 25.83 in 0 in
      2/25/2025 77 °F / 32 °F 18 °F / 7 °F 18 % 10 mph - 25.73 in 0 in
      2/26/2025 77 °F / 39 °F 19 °F / 3 °F 15 % 18 mph - 25.7 in 0 in
      2/27/2025 64 °F / 41 °F 21 °F / 16 °F 26 % 14 mph - 25.93 in 0 in
      2/28/2025 68 °F / 37 °F 21 °F / 16 °F 27 % 12 mph - 25.83 in 0 in
      essentialaccessibility.com
      We recognize our responsibility to use data and technology for good. We may use or share your data with our data vendors. Take control of your data.
      Glossary